Palacios, TX

2:26 AM CDT on May 24, 2017 (GMT -0500)
Palacios Municipal

Weather History for KPSX - July, 2013

Change the Weather History Date:

Sunday, July 7, 2013

  Actual Average Record
Temperature  
Mean Temperature 84 °F -  
Max Temperature 90 °F 89 °F 97 °F (1947)
Min Temperature 78 °F 76 °F 68 °F (1972)
Cooling Degree Days 19    
Growing Degree Days 34 (Base 50)    
Moisture  
Dew Point 74 °F    
Average Humidity 76    
Maximum Humidity 88    
Minimum Humidity 59    
Precipitation  
Precipitation 0.00 in - - ()
Sea Level Pressure  
Sea Level Pressure 29.94 in    
Wind  
Wind Speed 8 mph (SE)    
Max Wind Speed 22 mph    
Max Gust Speed 29 mph    
Visibility 10 miles    
Events Rain    
Averages and records for this station are not official NWS values.
T = Trace of Precipitation, MM = Missing Value Source: NWS Daily Summary

Daily Weather History Graph

Daily Weather History Graph

Search for Another Location

Airport or City:

Trip Planner

Search our weather history database for the weather conditions in past years. The results will help you decide how hot, cold, wet, or windy it might be!

Date:

Astronomy

Jul. 07, 2013 Rise Set
Actual Time 6:33 AM CDT 8:26 PM CDT
Civil Twilight 6:06 AM CDT 8:53 PM CDT
Nautical Twilight 5:34 AM CDT 9:25 PM CDT
Astronomical Twilight 4:59 AM CDT 9:59 PM CDT
Moon 6:05 AM CDT (7/7) 7:57 PM CDT (7/7)
Length of Visible Light 14h 46m
Length of Day
13h 53m
Waning Crescent, 0% of the Moon is Illuminated
Jul 7
Waning Crescent
Jul 8
New
Jul 15
First Quarter
Jul 22
Full
Jul 29
Last Quarter

Hourly Weather History & Observations

Time (CDT) Temp. Heat Index Dew Point Humidity Pressure Visibility Wind Dir Wind Speed Gust Speed Precip Events Conditions
12:53 AM 79.0 °F - 75.0 °F 88% 29.89 in 10.0 mi ENE 4.6 mph - N/A   Clear
1:53 AM 78.1 °F - 73.9 °F 87% 29.89 in 10.0 mi East 4.6 mph - N/A   Clear
2:53 AM 81.0 °F 87.3 °F 75.9 °F 85% 29.89 in 10.0 mi SE 6.9 mph - N/A   Partly Cloudy
3:53 AM 81.0 °F 86.7 °F 75.0 °F 82% 29.89 in 10.0 mi SE 6.9 mph - N/A   Partly Cloudy
4:53 AM 81.0 °F 86.7 °F 75.0 °F 82% 29.89 in 10.0 mi SSE 5.8 mph - N/A   Partly Cloudy
5:53 AM 80.1 °F 85.1 °F 75.0 °F 85% 29.90 in 10.0 mi SSE 5.8 mph - N/A   Clear
6:53 AM 79.0 °F - 75.0 °F 88% 29.91 in 7.0 mi Calm Calm - 0.00 in Rain Light Rain
7:53 AM 82.0 °F 90.2 °F 77.0 °F 85% 29.93 in 10.0 mi NE 3.5 mph - 0.00 in   Scattered Clouds
8:53 AM 81.0 °F 87.3 °F 75.9 °F 85% 29.95 in 10.0 mi ENE 8.1 mph - N/A   Mostly Cloudy
9:53 AM 82.9 °F 90.8 °F 75.9 °F 79% 29.96 in 7.0 mi NE 4.6 mph - 0.00 in Rain Light Rain
10:53 AM 84.0 °F 92.6 °F 75.9 °F 76% 29.95 in 10.0 mi ESE 4.6 mph - 0.00 in   Clear
11:53 AM 87.1 °F 95.4 °F 73.9 °F 65% 29.95 in 10.0 mi East 5.8 mph - N/A   Partly Cloudy
1:53 PM 86.0 °F 95.1 °F 75.0 °F 70% 29.94 in 10.0 mi South 6.9 mph - 0.00 in   Mostly Cloudy
2:10 PM 86.0 °F 95.1 °F 75.2 °F 70% 29.94 in 10.0 mi South 10.4 mph - 0.00 in Rain Light Rain
2:34 PM 87.8 °F 95.6 °F 73.4 °F 62% 29.94 in 10.0 mi South 11.5 mph 18.4 mph 0.00 in   Overcast
2:53 PM 90.0 °F 99.0 °F 73.9 °F 59% 29.94 in 10.0 mi SSE 16.1 mph 25.3 mph 0.00 in   Mostly Cloudy
3:53 PM 87.1 °F 93.6 °F 72.0 °F 61% 29.94 in 10.0 mi SSE 21.9 mph 28.8 mph N/A   Partly Cloudy
4:28 PM 84.2 °F 92.3 °F 75.2 °F 74% 29.94 in 10.0 mi SSE 19.6 mph 25.3 mph 0.00 in   Mostly Cloudy
4:51 PM 84.2 °F 90.9 °F 73.4 °F 70% 29.94 in 10.0 mi SSE 19.6 mph 27.6 mph 0.00 in   Mostly Cloudy
4:53 PM 84.9 °F 92.1 °F 73.9 °F 69% 29.94 in 10.0 mi SSE 20.7 mph 27.6 mph 0.00 in   Mostly Cloudy
6:53 PM 82.9 °F 88.8 °F 73.0 °F 72% 29.95 in 10.0 mi South 15.0 mph - N/A   Overcast
7:53 PM 82.0 °F 87.4 °F 73.0 °F 74% 29.94 in 10.0 mi South 8.1 mph - N/A   Partly Cloudy
8:34 PM 82.4 °F 88.2 °F 73.4 °F 74% 29.95 in 10.0 mi South 8.1 mph - N/A   Mostly Cloudy
8:53 PM 82.0 °F 87.9 °F 73.9 °F 76% 29.95 in 10.0 mi South 4.6 mph - N/A   Scattered Clouds
9:53 PM 81.0 °F 86.2 °F 73.9 °F 79% 29.96 in 10.0 mi SE 6.9 mph - N/A   Clear
10:30 PM 80.6 °F 86.2 °F 75.2 °F 84% 29.98 in 10.0 mi SE 10.4 mph - N/A   Mostly Cloudy
10:53 PM 82.0 °F 87.9 °F 73.9 °F 76% 29.99 in 10.0 mi SE 15.0 mph - N/A   Mostly Cloudy
11:18 PM 80.6 °F 85.4 °F 73.4 °F 79% 30.00 in 10.0 mi SE 13.8 mph - N/A   Mostly Cloudy
11:53 PM 82.0 °F 87.9 °F 73.9 °F 76% 30.00 in 10.0 mi SSE 13.8 mph 23.0 mph N/A   Mostly Cloudy